Flag for Mauritania Weather past 2 weeks in Nouadhibou, Mauritania

Now
66 °F

Clear.


Feels Like: 66 °F
Forecast: 64 / 88 °F
Wind: 16 mph from North

Location: Nouadhibou Airport


UV Index: 10 (Very high)

Visibility: 4 mi


Pressure: 29.92 "Hg

Humidity: 73%

Dew point: 57 °F

Location of NouadhibouLocation

Historic Weather in Nouadhibou

°F

Nouadhibou temperature yesterday

Maximum temperature yesterday: 82 °F (at 12:00 PM)
Minimum temperature yesterday: 66 °F (at 4:00 AM)
Average temperature yesterday: 72 °F

Past Weeks' High & Low Weather Summary

 TemperatureHumidityPressure
High90 °F (Apr 4, 2:00 PM)100% (Apr 10, 2:56 AM)30.04 "Hg (Apr 10, 2:56 AM)
Low57 °F (Apr 6, 7:00 AM)20% (Apr 4, 2:00 PM)29.86 "Hg (Apr 11, 4:00 PM)
Average68 °F74%29.95 "Hg
* Reported Apr 4 4:00 AM — Apr 19 4:00 AM, Nouadhibou, Weather by CustomWeather, © 2014

Note: Actual official high and low records may vary slightly from our data, if they occured in-between our weather recording intervals... More about our weather records

Advertising

Historic Weather Conditions — Data for Previous 24 hours

 ConditionsComfort  
Time TempWeatherWind HumidityBarometerVisibility
4:00 AM
Apr 19
66 °FClear.16 mph73%29.92 "Hg4 mi
3:00 AM68 °FClear.20 mph73%29.92 "Hg4 mi
2:00 AM66 °FClear.18 mph73%29.92 "Hg4 mi
1:00 AM68 °FClear.17 mph69%29.95 "Hg4 mi
12:00 AM68 °FClear.20 mph73%29.95 "Hg4 mi
11:00 PM
Apr 18
66 °FClear.21 mph78%29.95 "Hg4 mi
10:00 PM70 °FClear.15 mph64%29.95 "Hg4 mi
9:00 PM66 °FClear.17 mph78%29.92 "Hg4 mi
8:00 PM68 °FClear.16 mph73%29.92 "Hg4 mi
7:00 PM70 °FClear.17 mph69%29.89 "Hg4 mi
6:00 PM70 °FClear.18 mph73%29.89 "Hg4 mi
5:00 PM75 °FPartly sunny.18 mph57%29.86 "Hg4 mi
4:00 PM77 °FPartly sunny.16 mph54%29.86 "Hg5 mi
3:00 PM77 °FPartly sunny.16 mph54%29.89 "Hg5 mi
2:00 PM81 °FClear.12 mph51%29.89 "Hg5 mi
1:00 PM79 °FClear.13 mph54%29.92 "Hg5 mi
12:00 PM82 °FClear.13 mph45%29.95 "Hg5 mi
11:00 AM81 °FClear.14 mph45%29.95 "Hg5 mi
10:00 AM75 °FClear.16 mph57%29.95 "Hg5 mi
9:00 AM70 °FClear.15 mph69%29.95 "Hg5 mi
8:00 AM66 °FClear.10 mph78%29.92 "Hg5 mi
7:00 AM66 °FClear.15 mph78%29.89 "Hg5 mi
6:00 AM66 °FClear.18 mph73%29.89 "Hg5 mi
Weather by CustomWeather, © 2014

See weather overview